Simultaneous Nadir Overpasses (SNOs) Predictions

Prediction of SNOs between GOES-15 and TERRA Satellite Orbit:

Table of predicted SNOs for the next 14.0 days since TLE Epoch: 1/25/2014
Index Date Time (GOES-15) GOES-15 Lat,Lon TERRA Lat,Lon Distance(km) Time Diff (sec)
1 01/26/2014 19:33:38 0.05,-135.29 0.10,-135.59 33.47 80
2 01/28/2014 19:18:44 0.05,-135.32 -0.54,-132.63 306.26 80
3 01/29/2014 07:42:47 -0.06,-135.30 -0.60,-137.81 285.20 80
4 01/31/2014 07:27:53 -0.06,-135.32 0.06,-134.85 54.07 80
5 02/02/2014 07:15:38 -0.06,-135.33 0.66,-131.87 393.18 80
6 02/02/2014 19:39:33 0.07,-135.36 0.41,-137.03 190.17 80
7 02/04/2014 19:24:38 0.07,-135.37 -0.21,-134.06 148.58 80
8 02/05/2014 07:48:40 -0.08,-135.35 -0.91,-139.25 442.81 80
9 02/06/2014 19:12:23
